Location: Chillicothe
(39.7950°N, 93.5520°W)
Time: 02:10:58
(UTC-05:00)

Courier 1B - All Passes

Search period start: 16 October 2019 00:00
Search period end: 26 October 2019 00:00
Orbit: 962 x 1209 km, 28.3° (Epoch: 15 October)

Date Brightness Start Highest point End Pass type
(mag) Time Alt. Az. Time Alt. Az. Time Alt. Az.
16 Oct - 00:32:33 10° WSW 00:38:25 26° SSW 00:44:00 10° SE night (unlit)
16 Oct - 02:29:05 10° SW 02:31:26 12° SSW 02:33:45 10° S night (unlit)
16 Oct - 19:52:00 10° SSW 19:57:50 23° SSE 20:03:32 10° ESE visible
16 Oct - 21:44:35 10° WSW 21:51:18 33° S 21:57:44 10° ESE visible
16 Oct - 23:38:28 10° WSW 23:44:47 30° S 23:50:47 10° SE night (unlit)
17 Oct - 01:33:50 10° WSW 01:37:56 16° SSW 01:41:54 10° S night (unlit)
17 Oct - 18:58:52 10° SSW 19:04:09 20° SSE 19:09:20 10° ESE visible
17 Oct - 20:50:52 10° SW 20:57:34 32° S 21:04:02 10° ESE visible
17 Oct - 22:44:29 10° WSW 22:51:06 33° S 22:57:25 10° SE visible
18 Oct - 00:39:16 10° WSW 00:44:24 20° SSW 00:49:19 10° SSE night (unlit)
18 Oct - 18:06:08 10° S 18:10:28 16° SSE 18:14:48 10° ESE daylight
18 Oct - 19:57:16 10° SW 20:03:49 30° SSE 20:10:14 10° ESE visible
18 Oct - 21:50:34 10° WSW 21:57:23 34° S 22:03:55 10° ESE visible
18 Oct - 23:44:57 10° WSW 23:50:47 25° SSW 23:56:23 10° SE night (unlit)
19 Oct - 17:14:10 10° S 17:16:49 12° SSE 17:19:31 10° SE daylight
19 Oct - 19:03:48 10° SW 19:10:05 26° SSE 19:16:17 10° ESE visible
19 Oct - 20:56:43 10° WSW 21:03:37 35° S 21:10:19 10° ESE visible
19 Oct - 22:50:48 10° WSW 22:57:08 28° SSW 23:03:13 10° SE visible
20 Oct - 00:46:48 10° SW 00:50:16 14° SSW 00:53:39 10° S night (unlit)
20 Oct - 18:10:33 10° SSW 18:16:21 23° SSE 18:22:09 10° ESE daylight
20 Oct - 20:02:57 10° SW 20:09:50 34° S 20:16:36 10° ESE visible
20 Oct - 21:56:45 10° WSW 22:03:25 32° S 22:09:52 10° SE visible
20 Oct - 23:51:54 10° WSW 23:56:43 18° SSW 00:01:22 10° SSE night (unlit)
21 Oct - 17:17:35 10° SSW 17:22:40 19° SSE 17:27:48 10° ESE daylight
21 Oct - 19:09:19 10° SW 19:16:04 32° S 19:22:46 10° ESE visible
21 Oct - 21:02:47 10° WSW 21:09:40 34° S 21:16:23 10° SE visible
21 Oct - 22:57:25 10° WSW 23:03:05 22° SSW 23:08:34 10° SSE visible
22 Oct - 16:25:04 10° S 16:29:02 15° SSE 16:33:01 10° ESE daylight
22 Oct - 18:15:48 10° SW 18:22:18 29° SSE 18:28:50 10° ESE daylight
22 Oct - 20:08:55 10° WSW 20:15:54 35° S 20:22:45 10° ESE visible
22 Oct - 22:03:10 10° WSW 22:09:25 27° SSW 22:15:28 10° SE visible
23 Oct - 00:00:13 10° SW 00:02:32 12° SSW 00:04:49 10° SSW night (unlit)
23 Oct - 15:33:48 10° SSE 15:35:25 11° SSE 15:37:03 10° SE daylight
23 Oct - 17:22:29 10° SW 17:28:34 26° SSE 17:34:45 10° ESE daylight
23 Oct - 19:15:10 10° WSW 19:22:06 35° S 19:29:01 10° ESE visible
23 Oct - 21:09:05 10° WSW 21:15:41 30° SSW 21:22:09 10° SE visible
23 Oct - 23:04:42 10° WSW 23:08:57 16° SSW 23:13:08 10° S visible
24 Oct - 16:29:23 10° SSW 16:34:52 22° SSE 16:40:30 10° ESE daylight
24 Oct - 18:21:31 10° SW 18:28:19 34° S 18:35:11 10° ESE daylight
24 Oct - 20:15:07 10° WSW 20:21:56 33° S 20:28:40 10° SE visible
24 Oct - 22:10:01 10° WSW 22:15:20 20° SSW 22:20:32 10° SSE visible
25 Oct - 15:36:37 10° SSW 15:41:14 17° SSE 15:45:58 10° ESE daylight
25 Oct - 17:27:59 10° SW 17:34:33 31° S 17:41:15 10° ESE daylight
25 Oct - 19:21:15 10° WSW 19:28:09 35° S 19:35:04 10° ESE visible
25 Oct - 21:15:40 10° WSW 21:21:39 24° SSW 21:27:33 10° SSE visible
